Allentown, PA

10:29 AM EDT on May 20, 2018 (GMT -0400)
Lehigh Valley International

Weather History for KABE - June, 2012

Change the Weather History Date:

Sunday, June 10, 2012

  Actual Average Record
Temperature  
Mean Temperature 76 °F 68 °F  
Max Temperature 90 °F 79 °F 96 °F (2008)
Min Temperature 62 °F 57 °F 43 °F (1988)
Degree Days  
Heating Degree Days 0 1  
Month to date heating degree days 24 22  
Since 1 June heating degree days 24 22  
Since 1 July heating degree days 4521 5790  
Cooling Degree Days 11 4  
Month to date cooling degree days 19 35  
Year to date cooling degree days 138 80  
Since 1 June cooling degree days 19 35  
Growing Degree Days 26 (Base 50)    
Moisture  
Dew Point 62 °F    
Average Humidity 67    
Maximum Humidity 93    
Minimum Humidity 40    
Precipitation  
Precipitation 0.00 in 0.15 in 1.28 in (2013)
Month to date precipitation 3.05 1.43  
Year to date precipitation 16.67 18.25  
Snow  
Snow 0.00 in 0.00 in 0.00 in (2002)
Month to date snowfall 0.0 0.0  
Since 1 June snowfall 0.0 0.0  
Since 1 July snowfall 12.0 32.9  
Snow Depth 0.00 in    
Sea Level Pressure  
Sea Level Pressure 30.05 in    
Wind  
Wind Speed 5 mph (WSW)    
Max Wind Speed 17 mph    
Max Gust Speed 21 mph    
Visibility 10 miles    
Events      
T = Trace of Precipitation, MM = Missing Value Source: NWS Daily Summary

Daily Weather History Graph

Daily Weather History Graph

Search for Another Location

Airport or City:

Astronomy

Jun. 10, 2012 Rise Set
Actual Time 5:30 AM EDT 8:32 PM EDT
Civil Twilight 4:57 AM EDT 9:05 PM EDT
Nautical Twilight 4:15 AM EDT 9:47 PM EDT
Astronomical Twilight 3:25 AM EDT 10:37 PM EDT
Moon 12:22 AM EDT (6/10) 12:18 PM EDT (6/10)
Length of Visible Light 16h 08m
Length of Day
15h 02m
Waning Gibbous, 58% of the Moon is Illuminated
Jun 10
Waning Gibbous
Jun 11
Last Quarter
Jun 19
New
Jun 26
First Quarter
Jul 3
Full

Hourly Weather History & Observations

Time (EDT) Temp. Heat Index Dew Point Humidity Pressure Visibility Wind Dir Wind Speed Gust Speed Precip Events Conditions
12:51 AM 68.0 °F - 61.0 °F 78% 29.99 in 10.0 mi SW 3.5 mph - 0.00 in   Overcast
1:51 AM 64.9 °F - 61.0 °F 87% 30.00 in 10.0 mi North 3.5 mph - N/A   Scattered Clouds
2:51 AM 66.0 °F - 61.0 °F 84% 30.01 in 10.0 mi NW 3.5 mph - N/A   Clear
3:51 AM 64.9 °F - 61.0 °F 87% 30.03 in 10.0 mi NNE 4.6 mph - N/A   Overcast
4:51 AM 63.0 °F - 61.0 °F 93% 30.03 in 10.0 mi West 3.5 mph - N/A   Partly Cloudy
5:51 AM 64.0 °F - 61.0 °F 90% 30.03 in 9.0 mi Calm Calm - N/A   Overcast
6:51 AM 64.9 °F - 62.1 °F 90% 30.05 in 9.0 mi Calm Calm - N/A   Overcast
7:51 AM 66.9 °F - 62.1 °F 84% 30.06 in 10.0 mi Calm Calm - N/A   Scattered Clouds
8:51 AM 73.0 °F - 63.0 °F 71% 30.07 in 10.0 mi Calm Calm - N/A   Clear
9:51 AM 77.0 °F - 63.0 °F 62% 30.07 in 10.0 mi West 3.5 mph - N/A   Clear
10:51 AM 81.0 °F 82.2 °F 63.0 °F 54% 30.07 in 10.0 mi West 5.8 mph - N/A   Clear
11:51 AM 82.0 °F 83.1 °F 63.0 °F 52% 30.07 in 10.0 mi WSW 5.8 mph - N/A   Clear
12:51 PM 86.0 °F 86.8 °F 63.0 °F 46% 30.07 in 10.0 mi Variable 4.6 mph - N/A   Clear
1:51 PM 87.1 °F 87.0 °F 61.0 °F 41% 30.06 in 10.0 mi South 3.5 mph - N/A   Clear
2:51 PM 89.1 °F 89.3 °F 62.1 °F 40% 30.04 in 10.0 mi SSW 6.9 mph - N/A   Clear
3:51 PM 89.1 °F 89.3 °F 62.1 °F 40% 30.04 in 10.0 mi WSW 9.2 mph - N/A   Partly Cloudy
4:51 PM 89.1 °F 90.0 °F 63.0 °F 42% 30.04 in 10.0 mi West 8.1 mph - N/A   Partly Cloudy
5:51 PM 89.1 °F 89.3 °F 62.1 °F 40% 30.04 in 10.0 mi WSW 8.1 mph - N/A   Partly Cloudy
6:51 PM 87.1 °F 88.3 °F 64.0 °F 46% 30.05 in 10.0 mi WSW 6.9 mph - N/A   Clear
7:51 PM 82.9 °F 83.7 °F 62.1 °F 49% 30.06 in 10.0 mi SW 5.8 mph - N/A   Clear
8:51 PM 81.0 °F 82.7 °F 64.9 °F 58% 30.08 in 10.0 mi ENE 17.3 mph 20.7 mph N/A   Mostly Cloudy
9:51 PM 78.1 °F - 64.0 °F 62% 30.11 in 10.0 mi ESE 8.1 mph - N/A   Clear
10:51 PM 75.0 °F - 63.0 °F 66% 30.13 in 10.0 mi ESE 6.9 mph - N/A   Clear
11:51 PM 73.9 °F - 62.1 °F 66% 30.14 in 10.0 mi ESE 5.8 mph - N/A   Clear